Regional Weather Roundup
Issued by NWS

Home | Current Version | Previous Version | Text Only | Print | Product List | Glossary Off
Versions: 1 2 3 4 5 6 7 8 9 10 11 12 13 14 15 16 17 18 19 20 21 22 23 24 25 26 27

000
ASUS43 KDMX 170707
RWRIA

WEATHER ROUNDUP FOR IOWA
NATIONAL WEATHER SERVICE DES MOINES IA
200 AM CDT THU APR 17 2014

NOTE: "FAIR" INDICATES FEW OR NO CLOUDS BELOW 12,000 FEET WITH NO
SIGNIFICANT WEATHER AND/OR OBSTRUCTIONS TO VISIBILITY.

* - THESE STATIONS ARE NOT NWS STATIONS...THUS NOT UNDER NWS
QUALITY CONTROL.  THEY ALSO DO NOT REPORT WEATHER SUCH
AS PRECIPITATION OR FOG.

IAZ001>003-012>014-020>022-031>034-043>046-170800-
   NORTHWEST IOWA

CITY           SKY/WX    TMP DP  RH WIND       PRES   REMARKS
CARROLL *      CLOUDY    32  28  86 NW22G31   30.08R WCI  19
CHEROKEE *     CLOUDY    31  28  87 NW16G24   30.12R WCI  20
DENISON *      CLOUDY    32  28  86 NW18G26   30.11R WCI  20
LE MARS *      CLOUDY    32  27  80 NW15G22   30.17R WCI  22
ORANGE CITY *  CLOUDY    30  25  80 N15       30.14R WCI  19
SHELDON *      CLOUDY    28  25  86 NW16      30.12R WCI  17
SIOUX CITY     CLOUDY    33  26  75 NW21      30.18R WCI  21
SPENCER        CLOUDY    30  25  81 NW22      30.10R WCI  17
STORM LAKE *   CLOUDY    30  28  93 NW23G31   30.09R WCI  17
$$

IAZ055>058-069>071-079>083-090>094-170800-
   SOUTHWEST IOWA

CITY           SKY/WX    TMP DP  RH WIND       PRES   REMARKS
ATLANTIC *     CLOUDY    34  30  86 NW16G26   30.12R WCI  23
AUDUBON *      MOCLDY    34  27  75 NW14G21   30.11R WCI  24
CLARINDA *     CLOUDY    36  30  80 NW15      30.15R WCI  26
COUNCIL BLFS * CLOUDY    34  30  86 NW15G22   30.13R WCI  24
CRESTON *      CLOUDY    34  30  86 NW14G21   30.09R WCI  24
HARLAN  *      CLOUDY    34  28  80 NW23G30   30.16R WCI  22
LAMONI         CLOUDY    38  33  82 W13       30.08R WCI  30
RED OAK *      CLOUDY    36  30  80 NW16      30.13R WCI  26
SHENANDOAH *   CLOUDY    36  30  80 N15G22    30.15R WCI  26
$$

IAZ047>049-059>061-072>074-084-170800-
   CENTRAL IOWA

CITY           SKY/WX    TMP DP  RH WIND       PRES   REMARKS
AMES           CLOUDY    35  30  82 NW18G24   30.03R WCI  24
ANKENY *       CLOUDY    36  32  87 NW21      30.04R WCI  24
CHARITON *     CLOUDY    39  36  87 W14G21    30.06R WCI  31
DES MOINES     CLOUDY    38  31  76 NW16      30.06R WCI  29
GRINNELL*      CLOUDY    40  36  85 W20       30.00R WCI  31
KNOXVILLE *    CLOUDY    39  34  81 NW15      30.04R WCI  31
MARSHALLTOWN   CLOUDY    36  32  85 W22G29    29.98R WCI  25
NEWTON *       CLOUDY    37  34  87 W17G24    30.02R WCI  28
PELLA *        CLOUDY    40  35  82 NW12G23   30.04R WCI  33
PERRY *        CLOUDY    35  30  82 NW16      30.06R WCI  25
$$

IAZ004>006-015-016-023>025-035-036-170800-
   NORTH CENTRAL IOWA

CITY           SKY/WX    TMP DP  RH WIND       PRES   REMARKS
ALGONA *       CLOUDY    30  28  93 NW21G31   30.03R WCI  17
CLARION *      LGT RAIN  32  30  93 NW22G31   30.00R WCI  19
ESTHERVILLE    CLOUDY    28  27  96 N23G33    30.04R WCI  14
FORT DODGE *   CLOUDY    32  27  80 NW14G21   30.05R WCI  22
MASON CITY     CLOUDY    32  30  92 NW23G32   29.95R WCI  19
FOREST CITY *  CLOUDY    32  32 100 NW22G29   29.95R WCI  19
IOWA FALLS *   CLOUDY    33  31  91 W24G31    29.99R WCI  21
$$

IAZ007>011-017>019-026>030-037>042-050>054-066-170800-
   NORTHEAST IOWA

CITY           SKY/WX    TMP DP  RH WIND       PRES   REMARKS
CEDAR RAPIDS   MOCLDY    45  34  65 W9        29.95R
CHARLES CITY * CLOUDY    36  34  93 W24G31    29.91R WCI  24
CLINTON *      CLOUDY    45  28  53 S22       30.02F
DECORAH *      CLOUDY    46  30  53 S21G29    29.85F
DUBUQUE        MOCLDY    44  29  55 S22G31    29.94F
MONTICELLO *   CLOUDY    45  30  57 S15G23    29.95F
OELWEIN *      CLOUDY   N/A N/A N/A W20G25    29.91F
WATERLOO       CLOUDY    38  34  85 W17G24    29.94R WCI  28
$$

IAZ064-065-067-068-078-170800-
   EAST CENTRAL IOWA

CITY           SKY/WX    TMP DP  RH WIND       PRES   REMARKS
DAVENPORT      MOCLDY    47  27  45 S25G33    29.99F
IOWA CITY      PTCLDY    46  29  51 SW13      30.00R
MT. PLEASANT * MOCLDY    47  28  47 S18       30.00F
MUSCATINE *    PTCLDY    48  28  46 S16       29.99F
QUAD CITIES    MOCLDY    47  27  45 S16G28    29.99F
$$

IAZ062-063-075>077-085>089-095>099-170800-
   SOUTHEAST IOWA

CITY           SKY/WX    TMP DP  RH WIND       PRES   REMARKS
BURLINGTON     MOCLDY    48  27  44 S17G25    30.01S
FAIRFIELD *    MOCLDY    45  36  70 W16       30.01F
FORT MADISON * MOCLDY    45  30  57 S12G17    30.03F
KEOKUK *       MOCLDY    50  27  40 S15       30.02F
OSKALOOSA *    CLOUDY    43  38  82 W14       30.02R
CENTERVILLE *  CLOUDY    41  37  87 W16       30.05R
OTTUMWA        CLOUDY    44  37  76 W14       30.02R
WASHINGTON *   PTCLDY    46  30  53 SW13      30.00F
$$

ABBREVIATIONS USED IN REMARKS
   TC - TEMPERATURES IN CELSIUS
  WCI - WIND CHILL INDEX
   HX - HEAT INDEX
  VSB - VISIBILITY
$$




USA.gov is the U.S. government's official web portal to all federal, state and local government web resources and services.